When you browse on this site, cookies collect data to enhance your experience and personalize the content and advertising you see.
Visit our Privacy Policy to learn more. By continuing to use the site, you agree to this use of cookies and data.
  • In Schweiz
  • Länderverzeichnis
  • Für 7 Tage
  • Wassertemperatur
  • Wetterkarte
  • Widgets
  • user-avatar
    Anmelden

    Stündliche Wetter Korostyschew

    Heute, 23 Februar, Sonntag

    Zeit Temperatur Niederschläge Wind Luftdruck Luftfeuchtigkeit
    00:00 0°C° 0 mm 7 m/S 747 mmHg 74%
    01:00 0°C° 0 mm 7 m/S 746 mmHg 73%
    02:00 +2°C° 0 mm 7 m/S 745 mmHg 72%
    03:00 +2°C° 0 mm 7 m/S 745 mmHg 72%
    04:00 +2°C° 0 mm 7 m/S 744 mmHg 72%
    05:00 +2°C° 0 mm 7 m/S 743 mmHg 72%
    06:00 +2°C° 0.1 mm 7 m/S 743 mmHg 76%
    07:00 +2°C° 0.1 mm 7 m/S 743 mmHg 80%
    08:00 +3°C° 0 mm 7 m/S 742 mmHg 84%
    09:00 +3°C° 0.1 mm 7 m/S 742 mmHg 83%
    10:00 +4°C° 0.1 mm 8 m/S 742 mmHg 83%
    11:00 +4°C° 0.1 mm 8 m/S 741 mmHg 82%
    12:00 +5°C° 0.2 mm 8 m/S 741 mmHg 75%
    13:00 +5°C° 0.2 mm 9 m/S 741 mmHg 69%
    14:00 +5°C° 0 mm 8 m/S 741 mmHg 63%
    15:00 +5°C° 0 mm 7 m/S 740 mmHg 63%
    16:00 +4°C° 0 mm 6 m/S 740 mmHg 63%
    17:00 +5°C° 0 mm 5 m/S 740 mmHg 62%
    18:00 +3°C° 0 mm 5 m/S 739 mmHg 71%
    19:00 +3°C° 0 mm 5 m/S 739 mmHg 79%
    20:00 +3°C° 0 mm 4 m/S 739 mmHg 87%
    21:00 +3°C° 0.2 mm 4 m/S 738 mmHg 90%
    22:00 +3°C° 0.2 mm 3 m/S 737 mmHg 92%
    23:00 +3°C° 0.2 mm 3 m/S 735 mmHg 95%

    Morgen, 24 Februar, Montag

    Zeit Temperatur Niederschläge Wind Luftdruck Luftfeuchtigkeit
    00:00 +3°C° 0.7 mm 3 m/S 734 mmHg 95%
    01:00 +3°C° 0.7 mm 3 m/S 732 mmHg 95%
    02:00 +3°C° 0.7 mm 3 m/S 731 mmHg 96%
    03:00 +4°C° 1.7 mm 4 m/S 729 mmHg 95%
    04:00 +4°C° 1.7 mm 4 m/S 727 mmHg 94%
    05:00 +5°C° 1.7 mm 5 m/S 725 mmHg 93%
    06:00 +3°C° 1.7 mm 7 m/S 726 mmHg 94%
    07:00 0°C° 1.7 mm 10 m/S 726 mmHg 94%
    08:00 -2°C° 1.7 mm 12 m/S 727 mmHg 95%
    09:00 -2°C° 0.2 mm 12 m/S 729 mmHg 87%
    10:00 -1°C° 0.2 mm 11 m/S 731 mmHg 80%
    11:00 +1°C° 0.2 mm 10 m/S 732 mmHg 72%
    12:00 +1°C° 0.1 mm 10 m/S 733 mmHg 73%
    13:00 +1°C° 0.1 mm 11 m/S 735 mmHg 74%
    14:00 +1°C° 0.1 mm 11 m/S 736 mmHg 75%
    15:00 +1°C° 0.1 mm 10 m/S 737 mmHg 77%
    16:00 0°C° 0.1 mm 10 m/S 737 mmHg 78%
    17:00 0°C° 0.1 mm 9 m/S 738 mmHg 80%
    18:00 0°C° 0 mm 8 m/S 739 mmHg 79%
    19:00 0°C° 0 mm 7 m/S 740 mmHg 78%
    20:00 0°C° 0 mm 7 m/S 740 mmHg 77%
    21:00 -1°C° 0 mm 6 m/S 741 mmHg 78%
    22:00 -1°C° 0 mm 6 m/S 741 mmHg 79%
    23:00 0°C° 0 mm 5 m/S 742 mmHg 80%

    übermorgen, 25 Februar, Dienstag

    Zeit Temperatur Niederschläge Wind Luftdruck Luftfeuchtigkeit
    00:00 -1°C° 0 mm 5 m/S 742 mmHg 82%
    01:00 -1°C° 0 mm 4 m/S 743 mmHg 85%
    02:00 -2°C° 0 mm 4 m/S 743 mmHg 87%
    03:00 -1°C° 0 mm 3 m/S 743 mmHg 88%
    04:00 -1°C° 0 mm 3 m/S 742 mmHg 89%
    05:00 -1°C° 0 mm 3 m/S 742 mmHg 91%
    06:00 -1°C° 0 mm 3 m/S 742 mmHg 89%
    07:00 0°C° 0 mm 3 m/S 741 mmHg 87%
    08:00 -1°C° 0 mm 4 m/S 741 mmHg 85%
    09:00 0°C° 0 mm 5 m/S 741 mmHg 84%
    10:00 0°C° 0 mm 5 m/S 740 mmHg 84%
    11:00 -1°C° 0 mm 6 m/S 740 mmHg 84%
    12:00 +1°C° 0.2 mm 6 m/S 739 mmHg 87%
    13:00 +1°C° 0.2 mm 6 m/S 738 mmHg 89%
    14:00 0°C° 0.2 mm 7 m/S 738 mmHg 92%
    15:00 +1°C° 0.1 mm 6 m/S 737 mmHg 91%
    16:00 +2°C° 0.1 mm 6 m/S 737 mmHg 89%
    17:00 +2°C° 0.1 mm 5 m/S 736 mmHg 87%
    18:00 +2°C° 0 mm 5 m/S 736 mmHg 84%
    19:00 +2°C° 0 mm 5 m/S 736 mmHg 80%
    20:00 +2°C° 0 mm 5 m/S 736 mmHg 76%
    21:00 +4°C° 0 mm 4 m/S 735 mmHg 76%
    22:00 +4°C° 0 mm 4 m/S 735 mmHg 76%
    23:00 +4°C° 0 mm 4 m/S 735 mmHg 76%

    26 Februar, Mittwoch

    Zeit Temperatur Niederschläge Wind Luftdruck Luftfeuchtigkeit
    00:00 +4°C° 0.1 mm 4 m/S 735 mmHg 78%
    01:00 +4°C° 0.1 mm 4 m/S 734 mmHg 80%
    02:00 +4°C° 0.1 mm 4 m/S 734 mmHg 82%
    03:00 +4°C° 0 mm 4 m/S 733 mmHg 81%
    04:00 +4°C° 0 mm 4 m/S 733 mmHg 79%
    05:00 +4°C° 0 mm 4 m/S 732 mmHg 78%
    06:00 +4°C° 0 mm 3 m/S 732 mmHg 78%
    07:00 +4°C° 0 mm 3 m/S 732 mmHg 79%
    08:00 +4°C° 0 mm 3 m/S 732 mmHg 79%
    09:00 +4°C° 0.3 mm 3 m/S 732 mmHg 82%
    10:00 +5°C° 0.3 mm 4 m/S 732 mmHg 86%
    11:00 +5°C° 0.3 mm 4 m/S 732 mmHg 89%
    12:00 +5°C° 0.1 mm 3 m/S 732 mmHg 89%
    13:00 +5°C° 0.1 mm 3 m/S 731 mmHg 89%
    14:00 +6°C° 0.1 mm 2 m/S 731 mmHg 89%
    15:00 +6°C° 0 mm 2 m/S 731 mmHg 89%
    16:00 +7°C° 0 mm 1 m/S 731 mmHg 89%
    17:00 +7°C° 0 mm 1 m/S 731 mmHg 89%
    18:00 +7°C° 0 mm 1 m/S 731 mmHg 90%
    19:00 +6°C° 0 mm 1 m/S 732 mmHg 91%
    20:00 +5°C° 0 mm 0 m/S 732 mmHg 92%
    21:00 +5°C° 0 mm 0 m/S 732 mmHg 92%
    22:00 +5°C° 0 mm 0 m/S 732 mmHg 91%
    23:00 +4°C° 0 mm 0 m/S 732 mmHg 91%

    27 Februar, Donnerstag

    Zeit Temperatur Niederschläge Wind Luftdruck Luftfeuchtigkeit
    00:00 +5°C° 0 mm 1 m/S 732 mmHg 92%
    01:00 +5°C° 0 mm 1 m/S 732 mmHg 92%
    02:00 +5°C° 0 mm 1 m/S 732 mmHg 92%
    03:00 +5°C° 0 mm 1 m/S 731 mmHg 92%
    04:00 +3°C° 0 mm 2 m/S 731 mmHg 91%
    05:00 +3°C° 0 mm 2 m/S 731 mmHg 91%
    06:00 +3°C° 0.1 mm 2 m/S 731 mmHg 92%
    07:00 +3°C° 0.1 mm 2 m/S 731 mmHg 92%
    08:00 +2°C° 0.1 mm 3 m/S 730 mmHg 92%
    09:00 +2°C° 1.4 mm 3 m/S 730 mmHg 94%
    10:00 +1°C° 1.4 mm 4 m/S 730 mmHg 95%
    11:00 +1°C° 1.4 mm 5 m/S 730 mmHg 96%
    12:00 0°C° 2.6 mm 5 m/S 730 mmHg 97%
    13:00 0°C° 2.6 mm 5 m/S 730 mmHg 98%
    14:00 -1°C° 2.6 mm 5 m/S 730 mmHg 98%
    15:00 -1°C° 1.2 mm 5 m/S 730 mmHg 98%
    16:00 0°C° 1.2 mm 5 m/S 731 mmHg 98%
    17:00 0°C° 1.2 mm 5 m/S 731 mmHg 98%
    18:00 0°C° 0.1 mm 5 m/S 732 mmHg 96%
    19:00 0°C° 0.1 mm 5 m/S 732 mmHg 94%
    20:00 0°C° 0.1 mm 5 m/S 733 mmHg 93%
    21:00 0°C° 0 mm 5 m/S 733 mmHg 90%
    22:00 -1°C° 0 mm 5 m/S 734 mmHg 88%
    23:00 -1°C° 0 mm 5 m/S 734 mmHg 85%

    28 Februar, Freitag

    Zeit Temperatur Niederschläge Wind Luftdruck Luftfeuchtigkeit
    00:00 -2°C° 0 mm 5 m/S 734 mmHg 85%
    01:00 -2°C° 0 mm 5 m/S 734 mmHg 85%
    02:00 -4°C° 0 mm 5 m/S 735 mmHg 85%
    03:00 -4°C° 0 mm 5 m/S 735 mmHg 84%
    04:00 -5°C° 0 mm 5 m/S 735 mmHg 83%
    05:00 -5°C° 0 mm 5 m/S 735 mmHg 82%
    06:00 -5°C° 0 mm 5 m/S 736 mmHg 81%
    07:00 -5°C° 0 mm 5 m/S 736 mmHg 80%
    08:00 -4°C° 0 mm 4 m/S 737 mmHg 78%
    09:00 -3°C° 0 mm 4 m/S 737 mmHg 72%
    10:00 -1°C° 0 mm 3 m/S 737 mmHg 66%
    11:00 0°C° 0 mm 3 m/S 737 mmHg 60%
    12:00 0°C° 0 mm 3 m/S 737 mmHg 59%
    13:00 +1°C° 0 mm 3 m/S 737 mmHg 58%
    14:00 +1°C° 0 mm 3 m/S 737 mmHg 57%
    15:00 +1°C° 0 mm 3 m/S 737 mmHg 62%
    16:00 +2°C° 0 mm 2 m/S 737 mmHg 68%
    17:00 +1°C° 0 mm 2 m/S 736 mmHg 73%
    18:00 +1°C° 0 mm 2 m/S 737 mmHg 75%
    19:00 +1°C° 0 mm 2 m/S 737 mmHg 77%
    20:00 +1°C° 0 mm 2 m/S 737 mmHg 78%
    21:00 +1°C° 0.7 mm 2 m/S 737 mmHg 85%
    22:00 -1°C° 0.7 mm 3 m/S 736 mmHg 91%
    23:00 -1°C° 0.7 mm 3 m/S 736 mmHg 98%
    Mehr zeigen